This is the latest recevied weather packets stored in our database for station/object KE9DBJ-13. If no packets are shown the sender has not sent any weather packets the latest 10 day(s).
| Time | Temp. | Humidity | Pressure | Rain* | Wind** | Luminosity | Snow |
|---|---|---|---|---|---|---|---|
| 1777513202 | 12.22° C | 75% | 1012.8 hPa | 0 mm | - | - | - |
| 1777512602 | 12.22° C | 71% | 1012.6 hPa | 0 mm | - | - | - |
| 1777512002 | 12.78° C | 71% | 1012.3 hPa | 0 mm | - | - | - |
| 1777511402 | 12.78° C | 70% | 1012.3 hPa | 0 mm | - | - | - |
| 1777510802 | 13.33° C | 68% | 1012.1 hPa | 0 mm | - | - | - |
| 1777510202 | 13.89° C | 67% | 1011.9 hPa | 0 mm | - | - | - |
| 1777509602 | 14.44° C | 62% | 1011.8 hPa | 0 mm | - | - | - |
| 1777509002 | 15° C | 60% | 1011.6 hPa | 0 mm | - | - | - |
| 1777508402 | 15.56° C | 58% | 1011.5 hPa | 0 mm | - | - | - |
| 1777507802 | 16.11° C | 58% | 1011.3 hPa | 0 mm | - | - | - |
| 1777507202 | 16.67° C | 55% | 1011.3 hPa | 0 mm | - | - | - |
| 1777506602 | 17.22° C | 54% | 1011.2 hPa | 0 mm | - | - | - |
| 1777506006 | 18.33° C | 52% | 1011.2 hPa | 0 mm | - | - | - |
| 1777505402 | 18.33° C | 52% | 1011.2 hPa | 0 mm | - | - | - |
| 1777504802 | 17.78° C | 53% | 1011.2 hPa | 0 mm | - | - | - |
| 1777504203 | 17.78° C | 52% | 1011.2 hPa | 0 mm | - | - | - |
| 1777503603 | 18.89° C | 51% | 1010.9 hPa | 0 mm | - | - | - |
| 1777503003 | 18.89° C | 51% | 1011.1 hPa | 0 mm | - | - | - |
| 1777502403 | 18.33° C | 55% | 1011 hPa | 0 mm | - | - | - |
| 1777501803 | 18.33° C | 56% | 1011 hPa | 0 mm | - | - | - |
| 1777501203 | 18.33° C | 53% | 1011 hPa | 0 mm | - | - | - |
| 1777500603 | 18.33° C | 52% | 1010.8 hPa | 0 mm | - | - | - |
| 1777500003 | 18.33° C | 55% | 1010.6 hPa | 0 mm | - | - | - |
| 1777499403 | 18.33° C | 52% | 1010.6 hPa | 0 mm | - | - | - |
| 1777498803 | 18.89° C | 52% | 1010.4 hPa | 0 mm | - | - | - |
* Rain latest hour (hover to see other rain measurements)
** Current wind speed in m/s (hover to see current wind gust speed)